SCP
0 0 0 0 0 0 0 0 0 0 0 0 0 0 0 0 0 0 0 0 0 0 0 0 0 0 0 0 0 0 0 0 0 0 0 0 0 0 0 0 0 0 0 0
0 0 0 0 0 0 0 0 0 0 0 0 0 0 0 0 0 0 0 0 0 0 0 0 0 0 0 0 0 0 0 0 0 0 0 0 0 0 0 0 0 0 0 0
0 0 0 0 0 0 0 0 0 0 0 0 0 0 0 0 0 0 0 0 0 0 0 0 0 0 0 0 0 0 0 0 0 0 0 0 0 0 0 0 0 0 0 0
0 0 0 0 0 0 0 0 0 0 0 0 0 -0 0 0 0 0 0 0 0 0 0 0 0 0 0 0 0 0 0 0 0 0 0 0 0 0 0 0 0 0 0 0
0 0 0 0 0 0 0 0 0 0 0 0 0 0 -0 -0 0 0 0 0 0 0 0 0 0 0 0 0 0 0 0 0 0 0 0 0 0 0 0 0 0 0 0 0
0 0 0 0 0 0 0 0 0 0 0 0 0 0 -0 0 0 0 0 0 0 0 0 0 0 0 0 0 0 0 0 0 0 0 0 0 0 0 0 0 0 0 0 0
0 0 0 0 0 0 0 0 0 0 0 0 0 0 0 0 0 0 0 0 0 0 0 0 0 0 0 0 0 0 0 0 0 0 0 0 0 0 0 0 0 0 0 0
0 0 0 0 0 0 0 0 0 0 0 0 0 0 0 -0 -0 -0 0 0 0 0 0 0 0 0 0 0 0 0 0 0 0 0 0 0 0 0 0 0 0 0 0 0
0 0 0 0 0 0 0 0 0 0 0 0 0 0 0 0 0 0 0 0 0 0 0 0 0 0 0 0 0 0 0 0 0 0 0 0 0 0 0 0 0 0 0 0
0 0 0 0 0 0 0 0 0 0 0 0 0 0 0 -0 -0 0 0 0 0 0 0 0 0 0 0 0 0 0 0 0 0 0 0 0 0 0 0 0 0 0 0 0
0 0 0 0 0 0 0 0 0 0 0 0 0 0 0 -0 0 0 0 0 0 0 0 0 0 0 0 0 0 0 0 0 0 0 0 0 0 0 0 0 0 0 0 0
0 0 0 0 0 0 0 0 0 0 0 0 0 0 0 -0 0 0 0 0 0 0 0 0 0 0 0 0 0 0 0 0 0 0 0 0 0 0 0 0 0 0 0 0
0 0 0 0 0 0 0 0 0 0 0 0 0 0 0 0 0 0 0 0 0 0 0 0 0 0 0 0 0 0 0 0 0 0 0 0 0 0 0 0 0 0 0 0
0 0 0 0 0 0 0 0 0 0 0 0 0 0 0 0 0 -0 0 0 -0 0 0 0 0 0 0 0 0 0 0 0 0 0 0 0 0 0 0 0 0 0 0 0
0 0 0 0 0 0 0 0 0 0 0 0 0 0 0 0 0 -0 -0 -0 -0 -0 -0 0 0 0 0 0 0 0 0 0 0 0 0 0 0 0 0 0 0 0 0 0
0 0 0 0 0 0 0 0 0 0 0 0 0 0 0 0 0 -0 -0 -0 0 0 0 0 0 0 0 0 0 0 0 0 0 0 0 0 0 0 0 0 0 0 0 0
0 0 0 0 0 0 0 0 0 0 0 0 0 0 0 0 0 0 0 0 0 0 0 0 0 0 0 0 0 0 0 0 0 0 0 0 0 0 0 0 0 0 0 0
0 0 0 0 0 0 0 0 0 0 0 0 0 0 0 0 0 0 0 0 0 0 0 0 0 0 0 0 0 0 0 0 0 0 0 0 0 0 0 0 0 0 0 0
0 0 0 0 0 0 0 0 0 0 0 0 0 0 0 0 0 0 0 0 0 0 0 0 0 0 0 0 0 0 0 0 0 0 0 0 0 0 0 0 0 0 0 0
0 0 0 0 0 0 0 0 0 0 0 0 0 0 0 0 0 0 0 0 0 0 0 0 0 0 0 0 0 0 0 0 0 0 0 0 0 0 0 0 0 0 0 0
0 0 0 0 0 0 0 0 0 0 0 0 0 0 0 0 0 0 0 0 0 0 0 0 0 0 0 0 0 0 0 0 0 0 0 0 0 0 0 0 0 0 0 0
0 0 0 0 0 0 0 0 0 0 0 0 0 0 0 0 0 0 0 0 0 0 0 0 0 0 0 0 0 0 0 0 0 0 0 0 0 0 0 0 0 0 0 0
0 0 0 0 0 0 0 0 0 0 0 0 0 0 0 0 0 0 0 0 0 0 0 0 0 0 0 0 0 0 0 0 0 0 0 0 0 0 0 0 0 0 0 0
0 0 0 0 0 0 0 0 0 0 0 0 0 0 0 0 0 0 0 0 0 0 0 0 0 0 0 0 0 0 0 0 0 0 0 0 0 0 0 0 0 0 0 0
0 0 0 0 0 0 0 0 0 0 0 0 0 0 0 0 0 0 0 0 0 0 0 0 0 0 0 0 0 0 0 0 0 0 0 0 0 0 0 0 0 0 0 0
0 0 0 -0 0 0 0 0 0 0 0 0 0 0 0 0 0 0 0 0 0 0 0 0 0 0 0 0 0 0 0 0 0 0 0 0 0 0 0 0 0 0 0 0
Wind_Speed_500mb
10 7 19 24 34 5 7 7 9 4 9 8 15 23 31 30 33 38 49 55 66 73 75 69 71 73 73 71 75 79 79 77 73 77 77 75 76 73 68 61 52 50 44 43
2 30 17 14 12 13 12 13 15 9 11 11 15 23 26 18 19 50 62 68 66 70 73 71 68 72 77 76 77 80 81 80 77 77 78 78 75 76 70 63 59 56 49 45
17 8 19 22 11 22 22 32 10 11 7 8 8 17 19 13 33 54 69 77 83 84 76 72 76 76 77 81 81 80 81 84 80 77 77 77 73 74 70 70 70 67 57 52
18 23 10 13 28 20 26 15 16 15 4 14 6 17 19 9 19 19 51 63 83 81 83 73 72 82 79 80 79 80 80 83 82 81 81 83 82 79 74 70 66 63 60 57
22 12 21 33 15 27 20 18 24 19 9 6 19 8 13 9 18 28 22 59 80 79 81 78 73 76 79 79 79 81 82 83 82 83 81 82 80 76 72 68 63 63 61 59
18 5 14 15 13 30 9 6 6 6 8 7 22 20 28 21 18 15 15 53 72 79 75 82 84 78 80 81 79 78 79 82 83 84 84 82 80 77 74 74 66 62 60 58
23 26 5 8 9 5 13 14 5 2 4 20 8 18 37 10 10 15 20 51 57 65 72 78 82 88 89 88 83 79 82 87 85 82 84 81 79 76 70 70 64 60 56 54
23 21 34 21 25 14 36 20 9 15 10 7 8 16 13 20 27 52 61 64 58 46 48 50 64 79 89 91 88 84 86 82 78 77 82 80 74 71 69 65 61 57 54 47
13 15 5 14 17 25 11 26 26 5 4 3 11 13 16 19 20 19 37 44 57 65 47 41 41 56 70 79 85 83 81 80 76 73 75 74 72 72 67 60 55 54 49 47
11 5 6 8 10 12 20 17 11 9 10 11 10 8 15 4 19 22 18 23 39 39 43 44 38 43 52 62 72 76 76 75 69 70 71 71 69 64 60 55 54 52 47 47
11 10 2 10 18 41 11 13 12 10 9 11 9 14 15 24 12 13 18 29 33 33 31 27 23 27 43 49 60 66 66 69 69 66 66 67 66 63 58 53 49 48 47 48
29 7 9 17 7 5 26 21 25 16 30 13 2 17 9 14 12 11 20 28 16 25 27 25 23 22 25 41 51 56 61 64 64 63 63 63 61 60 57 55 50 48 48 48
28 10 4 10 7 3 14 26 31 36 4 36 18 25 10 10 10 12 12 14 10 18 26 27 28 30 32 34 37 47 56 59 59 59 59 59 58 57 56 52 50 51 50 48
46 10 27 28 14 14 15 15 20 17 22 38 33 36 6 11 13 12 12 10 11 17 23 27 30 32 36 39 42 43 46 52 55 57 58 56 54 52 50 49 50 50 48 46
28 15 22 35 11 9 14 37 26 33 46 23 54 46 17 23 25 17 28 18 23 28 32 34 32 34 35 37 39 41 42 46 52 55 55 54 50 48 48 48 47 46 45 43
9 10 13 7 16 10 9 18 33 38 46 41 54 50 17 26 45 14 25 30 40 45 41 35 29 32 32 31 35 36 37 41 46 50 51 51 50 47 46 44 42 41 40 39
20 11 8 11 6 11 12 43 14 22 32 38 42 60 12 16 20 23 37 42 54 59 43 39 28 31 28 27 31 35 38 40 43 45 47 47 47 46 44 41 40 39 38 36
22 31 8 8 5 12 25 20 47 38 28 33 38 39 16 22 49 60 59 53 53 54 40 40 30 34 29 28 31 35 40 43 46 46 47 47 48 47 45 44 43 41 38 35
38 31 7 13 16 10 8 13 13 24 53 33 38 39 22 25 21 48 77 77 70 48 44 41 35 38 35 33 34 38 43 45 48 50 50 50 49 49 48 46 44 41 38 36
34 35 24 7 21 26 30 16 19 14 34 41 39 34 30 19 13 35 49 50 57 53 45 41 47 44 41 40 41 43 47 49 48 50 50 48 46 44 45 43 42 41 36 33
27 20 32 26 12 15 12 9 31 20 20 16 45 43 33 23 50 22 32 41 49 54 57 49 55 52 48 47 47 49 51 51 51 51 50 48 45 42 41 42 39 37 35 33
27 22 19 9 11 23 19 14 34 23 8 10 7 43 51 81 56 60 52 36 42 50 57 57 63 60 56 54 55 56 55 53 51 49 48 48 47 45 41 38 40 38 36 34
9 18 17 27 27 5 48 25 63 30 18 13 7 4 23 39 35 33 43 53 49 43 51 61 67 66 65 64 62 63 60 56 53 51 49 46 45 44 42 40 38 38 36 36
6 5 8 9 15 16 26 34 32 33 24 18 16 14 15 13 14 24 37 41 49 53 56 63 73 75 74 71 67 59 57 57 55 52 49 48 45 44 42 39 36 37 42 42
10 20 11 6 3 6 16 45 55 48 41 32 24 28 26 20 18 21 27 33 44 58 65 72 79 83 84 81 75 72 68 65 60 54 51 48 46 45 45 43 41 40 37 35
12 22 15 18 18 15 21 60 46 46 46 45 45 46 44 34 28 28 32 35 43 57 64 71 78 85 86 82 78 72 64 60 58 55 53 52 51 50 48 48 47 39 34 36
Wind_Direction_500mb
198 190 210 197 204 227 190 220 219 238 259 218 239 250 260 247 235 256 252 251 249 248 250 245 240 235 231 231 228 225 224 225 221 222 224 225 225 229 232 235 235 232 234 238
38 238 210 204 231 235 234 230 249 275 258 190 273 261 260 234 230 239 245 249 252 253 252 246 242 235 232 232 230 226 227 228 226 227 226 229 227 229 231 233 233 231 235 238
198 237 204 182 196 220 232 234 213 225 326 264 311 275 256 246 237 247 246 248 252 251 256 251 240 237 232 231 232 230 229 228 228 228 227 229 232 235 232 231 228 230 233 238
229 235 201 205 233 190 243 189 221 226 209 251 127 279 252 247 250 228 243 235 244 246 250 252 245 237 233 234 234 232 231 229 227 227 226 227 229 230 231 234 231 231 234 239
227 193 204 217 209 186 241 180 198 209 206 358 247 280 264 211 243 246 239 236 243 244 243 244 246 239 237 237 236 232 230 230 227 227 227 228 230 234 238 239 237 237 239 242
236 221 178 208 177 190 173 104 89 92 120 247 234 199 255 236 225 251 245 248 247 242 241 245 246 244 241 239 238 236 232 231 227 226 226 229 230 232 233 237 237 239 241 243
226 234 233 183 182 134 164 158 183 177 185 237 184 187 244 252 252 230 244 255 254 249 247 248 247 243 241 240 238 234 230 228 227 225 227 230 231 234 235 238 240 241 241 241
198 253 191 193 202 173 194 189 178 193 202 235 118 225 249 230 251 248 247 253 259 260 251 252 252 248 244 240 236 233 231 228 227 225 227 229 231 234 235 237 239 241 240 239
171 250 219 212 176 164 206 208 218 76 20 122 217 280 293 250 266 259 249 250 256 257 252 258 266 248 243 238 232 232 231 229 226 224 226 228 231 233 233 234 237 239 238 235
215 270 226 192 136 237 180 156 182 210 180 224 252 243 232 303 258 268 275 242 258 257 249 255 257 245 239 238 232 229 230 230 229 224 225 227 229 232 234 233 233 235 234 233
177 174 297 135 202 192 183 185 211 178 166 212 258 254 215 224 246 279 278 281 259 247 240 238 244 242 230 229 229 228 229 230 228 227 226 226 226 228 231 231 231 231 230 231
200 168 180 204 245 297 220 198 198 206 223 235 198 251 205 227 249 263 275 283 272 235 230 227 230 230 226 225 226 227 227 227 228 227 225 224 223 225 227 228 227 227 228 229
175 219 57 347 342 222 203 208 208 219 59 228 223 260 212 253 254 268 281 290 235 222 236 233 234 234 231 225 225 228 228 226 224 223 222 221 220 220 222 223 222 223 225 227
170 184 205 216 209 142 213 198 216 221 233 241 235 250 314 282 289 295 270 261 253 235 236 243 243 241 237 234 229 228 226 222 218 215 215 215 215 216 217 218 218 221 224 227
173 204 208 231 235 189 203 216 206 209 227 217 244 244 216 254 278 239 262 260 250 244 242 237 236 241 235 229 226 222 219 216 209 207 206 207 208 210 212 214 216 219 222 224
207 232 166 272 214 188 230 220 218 215 230 237 248 255 219 232 253 259 228 237 238 244 242 237 231 236 230 223 219 212 207 202 199 198 200 200 203 206 210 211 211 211 211 209
186 148 99 257 219 164 285 235 206 229 228 220 234 242 157 226 238 252 255 230 236 243 237 233 229 238 223 213 208 201 195 189 186 188 191 195 198 198 196 195 195 194 193 191
247 201 158 214 71 192 247 189 225 226 233 228 242 252 209 231 246 255 258 265 267 263 248 234 220 222 203 193 187 185 184 185 183 182 183 182 182 181 179 178 178 178 179 180
226 196 190 186 203 290 278 226 178 194 244 229 228 238 219 237 252 265 253 257 265 269 257 239 223 212 199 187 179 175 171 173 171 169 170 169 170 170 170 171 171 173 174 173
197 209 204 115 215 222 244 197 147 95 264 232 228 232 212 161 227 253 254 254 258 252 249 229 214 205 201 188 183 179 171 169 169 165 164 164 165 168 167 169 169 169 171 173
185 201 203 206 213 269 228 194 148 164 249 201 208 219 195 194 224 244 244 242 243 249 235 219 208 206 199 191 183 181 175 170 167 165 164 164 165 167 169 168 171 174 175 178
183 180 197 173 181 253 177 124 177 214 225 230 167 234 213 222 230 226 233 228 234 235 221 213 203 200 195 193 184 179 176 171 171 170 169 168 168 169 172 178 178 179 182 175
191 192 178 187 205 196 178 194 210 192 175 180 181 287 238 225 226 230 232 230 231 231 222 211 204 196 192 189 188 182 180 178 175 173 172 172 173 176 179 182 184 180 178 183
261 189 165 111 209 214 201 206 206 207 213 213 221 181 158 164 197 227 233 227 225 229 220 214 205 198 192 190 188 190 186 183 180 177 177 178 181 181 182 183 186 188 186 183
193 144 156 268 258 66 237 217 217 212 221 230 226 221 225 249 251 248 249 244 233 230 219 213 209 201 196 190 189 187 189 185 181 181 184 183 185 186 183 183 186 186 187 189
200 164 182 223 169 175 211 214 215 216 220 229 237 243 250 255 260 272 272 256 240 228 220 213 207 203 196 190 188 188 191 189 188 185 187 189 187 186 186 184 179 178 185 178
Wind_Speed_850mb
10 7 19 24 34 5 7 7 9 4 9 8 15 23 31 30 33 38 49 55 66 73 75 69 71 73 73 71 75 79 79 77 73 77 77 75 76 73 68 61 52 50 44 43
2 30 17 14 12 13 12 13 15 9 11 11 15 23 26 18 19 50 62 68 66 70 73 71 68 72 77 76 77 80 81 80 77 77 78 78 75 76 70 63 59 56 49 45
17 8 19 22 11 22 22 32 10 11 7 8 8 17 19 13 33 54 69 77 83 84 76 72 76 76 77 81 81 80 81 84 80 77 77 77 73 74 70 70 70 67 57 52
18 23 10 13 28 20 26 15 16 15 4 14 6 17 19 9 19 19 51 63 83 81 83 73 72 82 79 80 79 80 80 83 82 81 81 83 82 79 74 70 66 63 60 57
22 12 21 33 15 27 20 18 24 19 9 6 19 8 13 9 18 28 22 59 80 79 81 78 73 76 79 79 79 81 82 83 82 83 81 82 80 76 72 68 63 63 61 59
18 5 14 15 13 30 9 6 6 6 8 7 22 20 28 21 18 15 15 53 72 79 75 82 84 78 80 81 79 78 79 82 83 84 84 82 80 77 74 74 66 62 60 58
23 26 5 8 9 5 13 14 5 2 4 20 8 18 37 10 10 15 20 51 57 65 72 78 82 88 89 88 83 79 82 87 85 82 84 81 79 76 70 70 64 60 56 54
23 21 34 21 25 14 36 20 9 15 10 7 8 16 13 20 27 52 61 64 58 46 48 50 64 79 89 91 88 84 86 82 78 77 82 80 74 71 69 65 61 57 54 47
13 15 5 14 17 25 11 26 26 5 4 3 11 13 16 19 20 19 37 44 57 65 47 41 41 56 70 79 85 83 81 80 76 73 75 74 72 72 67 60 55 54 49 47
11 5 6 8 10 12 20 17 11 9 10 11 10 8 15 4 19 22 18 23 39 39 43 44 38 43 52 62 72 76 76 75 69 70 71 71 69 64 60 55 54 52 47 47
11 10 2 10 18 41 11 13 12 10 9 11 9 14 15 24 12 13 18 29 33 33 31 27 23 27 43 49 60 66 66 69 69 66 66 67 66 63 58 53 49 48 47 48
29 7 9 17 7 5 26 21 25 16 30 13 2 17 9 14 12 11 20 28 16 25 27 25 23 22 25 41 51 56 61 64 64 63 63 63 61 60 57 55 50 48 48 48
28 10 4 10 7 3 14 26 31 36 4 36 18 25 10 10 10 12 12 14 10 18 26 27 28 30 32 34 37 47 56 59 59 59 59 59 58 57 56 52 50 51 50 48
46 10 27 28 14 14 15 15 20 17 22 38 33 36 6 11 13 12 12 10 11 17 23 27 30 32 36 39 42 43 46 52 55 57 58 56 54 52 50 49 50 50 48 46
28 15 22 35 11 9 14 37 26 33 46 23 54 46 17 23 25 17 28 18 23 28 32 34 32 34 35 37 39 41 42 46 52 55 55 54 50 48 48 48 47 46 45 43
9 10 13 7 16 10 9 18 33 38 46 41 54 50 17 26 45 14 25 30 40 45 41 35 29 32 32 31 35 36 37 41 46 50 51 51 50 47 46 44 42 41 40 39
20 11 8 11 6 11 12 43 14 22 32 38 42 60 12 16 20 23 37 42 54 59 43 39 28 31 28 27 31 35 38 40 43 45 47 47 47 46 44 41 40 39 38 36
22 31 8 8 5 12 25 20 47 38 28 33 38 39 16 22 49 60 59 53 53 54 40 40 30 34 29 28 31 35 40 43 46 46 47 47 48 47 45 44 43 41 38 35
38 31 7 13 16 10 8 13 13 24 53 33 38 39 22 25 21 48 77 77 70 48 44 41 35 38 35 33 34 38 43 45 48 50 50 50 49 49 48 46 44 41 38 36
34 35 24 7 21 26 30 16 19 14 34 41 39 34 30 19 13 35 49 50 57 53 45 41 47 44 41 40 41 43 47 49 48 50 50 48 46 44 45 43 42 41 36 33
27 20 32 26 12 15 12 9 31 20 20 16 45 43 33 23 50 22 32 41 49 54 57 49 55 52 48 47 47 49 51 51 51 51 50 48 45 42 41 42 39 37 35 33
27 22 19 9 11 23 19 14 34 23 8 10 7 43 51 81 56 60 52 36 42 50 57 57 63 60 56 54 55 56 55 53 51 49 48 48 47 45 41 38 40 38 36 34
9 18 17 27 27 5 48 25 63 30 18 13 7 4 23 39 35 33 43 53 49 43 51 61 67 66 65 64 62 63 60 56 53 51 49 46 45 44 42 40 38 38 36 36
6 5 8 9 15 16 26 34 32 33 24 18 16 14 15 13 14 24 37 41 49 53 56 63 73 75 74 71 67 59 57 57 55 52 49 48 45 44 42 39 36 37 42 42
10 20 11 6 3 6 16 45 55 48 41 32 24 28 26 20 18 21 27 33 44 58 65 72 79 83 84 81 75 72 68 65 60 54 51 48 46 45 45 43 41 40 37 35
12 22 15 18 18 15 21 60 46 46 46 45 45 46 44 34 28 28 32 35 43 57 64 71 78 85 86 82 78 72 64 60 58 55 53 52 51 50 48 48 47 39 34 36
Wind_Direction_850mb
198 190 210 197 204 227 190 220 219 238 259 218 239 250 260 247 235 256 252 251 249 248 250 245 240 235 231 231 228 225 224 225 221 222 224 225 225 229 232 235 235 232 234 238
38 238 210 204 231 235 234 230 249 275 258 190 273 261 260 234 230 239 245 249 252 253 252 246 242 235 232 232 230 226 227 228 226 227 226 229 227 229 231 233 233 231 235 238
198 237 204 182 196 220 232 234 213 225 326 264 311 275 256 246 237 247 246 248 252 251 256 251 240 237 232 231 232 230 229 228 228 228 227 229 232 235 232 231 228 230 233 238
229 235 201 205 233 190 243 189 221 226 209 251 127 279 252 247 250 228 243 235 244 246 250 252 245 237 233 234 234 232 231 229 227 227 226 227 229 230 231 234 231 231 234 239
227 193 204 217 209 186 241 180 198 209 206 358 247 280 264 211 243 246 239 236 243 244 243 244 246 239 237 237 236 232 230 230 227 227 227 228 230 234 238 239 237 237 239 242
236 221 178 208 177 190 173 104 89 92 120 247 234 199 255 236 225 251 245 248 247 242 241 245 246 244 241 239 238 236 232 231 227 226 226 229 230 232 233 237 237 239 241 243
226 234 233 183 182 134 164 158 183 177 185 237 184 187 244 252 252 230 244 255 254 249 247 248 247 243 241 240 238 234 230 228 227 225 227 230 231 234 235 238 240 241 241 241
198 253 191 193 202 173 194 189 178 193 202 235 118 225 249 230 251 248 247 253 259 260 251 252 252 248 244 240 236 233 231 228 227 225 227 229 231 234 235 237 239 241 240 239
171 250 219 212 176 164 206 208 218 76 20 122 217 280 293 250 266 259 249 250 256 257 252 258 266 248 243 238 232 232 231 229 226 224 226 228 231 233 233 234 237 239 238 235
215 270 226 192 136 237 180 156 182 210 180 224 252 243 232 303 258 268 275 242 258 257 249 255 257 245 239 238 232 229 230 230 229 224 225 227 229 232 234 233 233 235 234 233
177 174 297 135 202 192 183 185 211 178 166 212 258 254 215 224 246 279 278 281 259 247 240 238 244 242 230 229 229 228 229 230 228 227 226 226 226 228 231 231 231 231 230 231
200 168 180 204 245 297 220 198 198 206 223 235 198 251 205 227 249 263 275 283 272 235 230 227 230 230 226 225 226 227 227 227 228 227 225 224 223 225 227 228 227 227 228 229
175 219 57 347 342 222 203 208 208 219 59 228 223 260 212 253 254 268 281 290 235 222 236 233 234 234 231 225 225 228 228 226 224 223 222 221 220 220 222 223 222 223 225 227
170 184 205 216 209 142 213 198 216 221 233 241 235 250 314 282 289 295 270 261 253 235 236 243 243 241 237 234 229 228 226 222 218 215 215 215 215 216 217 218 218 221 224 227
173 204 208 231 235 189 203 216 206 209 227 217 244 244 216 254 278 239 262 260 250 244 242 237 236 241 235 229 226 222 219 216 209 207 206 207 208 210 212 214 216 219 222 224
207 232 166 272 214 188 230 220 218 215 230 237 248 255 219 232 253 259 228 237 238 244 242 237 231 236 230 223 219 212 207 202 199 198 200 200 203 206 210 211 211 211 211 209
186 148 99 257 219 164 285 235 206 229 228 220 234 242 157 226 238 252 255 230 236 243 237 233 229 238 223 213 208 201 195 189 186 188 191 195 198 198 196 195 195 194 193 191
247 201 158 214 71 192 247 189 225 226 233 228 242 252 209 231 246 255 258 265 267 263 248 234 220 222 203 193 187 185 184 185 183 182 183 182 182 181 179 178 178 178 179 180
226 196 190 186 203 290 278 226 178 194 244 229 228 238 219 237 252 265 253 257 265 269 257 239 223 212 199 187 179 175 171 173 171 169 170 169 170 170 170 171 171 173 174 173
197 209 204 115 215 222 244 197 147 95 264 232 228 232 212 161 227 253 254 254 258 252 249 229 214 205 201 188 183 179 171 169 169 165 164 164 165 168 167 169 169 169 171 173
185 201 203 206 213 269 228 194 148 164 249 201 208 219 195 194 224 244 244 242 243 249 235 219 208 206 199 191 183 181 175 170 167 165 164 164 165 167 169 168 171 174 175 178
183 180 197 173 181 253 177 124 177 214 225 230 167 234 213 222 230 226 233 228 234 235 221 213 203 200 195 193 184 179 176 171 171 170 169 168 168 169 172 178 178 179 182 175
191 192 178 187 205 196 178 194 210 192 175 180 181 287 238 225 226 230 232 230 231 231 222 211 204 196 192 189 188 182 180 178 175 173 172 172 173 176 179 182 184 180 178 183
261 189 165 111 209 214 201 206 206 207 213 213 221 181 158 164 197 227 233 227 225 229 220 214 205 198 192 190 188 190 186 183 180 177 177 178 181 181 182 183 186 188 186 183
193 144 156 268 258 66 237 217 217 212 221 230 226 221 225 249 251 248 249 244 233 230 219 213 209 201 196 190 189 187 189 185 181 181 184 183 185 186 183 183 186 186 187 189
200 164 182 223 169 175 211 214 215 216 220 229 237 243 250 255 260 272 272 256 240 228 220 213 207 203 196 190 188 188 191 189 188 185 187 189 187 186 186 184 179 178 185 178